Wind_Speed
49 48 46 45 44 43 42 41 40 39 38 37 37 36 36 36 35 35 36 37 37 38 38 39 40 41 41 42 43 44 45 46 46 47 49 51 52 54 56 58 60 62 63
49 48 47 45 45 43 42 41 40 39 38 38 37 37 37 36 36 36 37 37 38 38 39 39 40 41 42 43 43 44 45 46 47 48 50 52 54 56 58 60 61 62 62
49 48 48 46 45 43 42 40 40 39 38 37 37 36 36 36 37 37 37 38 38 38 39 39 40 41 42 43 44 45 46 47 48 50 51 53 56 58 59 60 61 61 62
48 47 46 45 44 42 41 40 39 39 38 37 37 36 37 37 37 37 37 38 38 38 38 39 40 41 42 43 44 45 46 47 50 51 53 55 57 58 59 60 60 61 60
47 46 44 44 43 42 41 40 39 39 38 38 37 37 37 37 37 37 37 38 38 38 38 40 41 41 42 43 44 45 46 49 51 53 55 56 58 58 59 59 60 59 59
46 45 44 43 42 41 40 39 38 38 37 37 36 36 36 36 37 37 37 37 37 38 39 40 41 41 42 43 44 45 48 50 52 54 55 57 58 58 59 59 59 59 59
45 44 44 43 41 40 39 38 37 37 36 36 36 35 35 35 35 36 37 37 37 38 39 39 40 41 42 43 45 46 48 51 53 55 56 57 57 58 59 58 58 59 60
44 43 43 42 40 39 38 37 37 36 35 35 35 34 34 34 35 36 36 37 37 38 38 38 40 41 42 44 45 47 49 51 53 54 56 57 58 58 58 58 58 59 61
41 40 40 40 38 38 37 36 36 35 35 34 34 34 34 34 35 35 36 36 36 37 37 38 39 41 42 43 46 48 50 52 53 54 55 57 58 58 58 58 59 60 60
39 38 38 37 37 36 36 35 34 34 33 33 33 33 34 34 34 34 35 35 36 36 37 38 39 41 42 44 46 48 50 51 52 54 55 57 57 57 58 59 60 61 61
38 37 37 36 35 34 34 34 33 33 33 32 32 33 33 33 33 33 34 34 35 36 37 38 39 41 43 45 47 48 50 51 52 54 55 56 56 56 58 59 61 61 60
37 36 35 35 34 33 33 32 32 32 32 32 32 32 32 32 32 32 33 34 34 35 36 38 39 41 43 45 47 48 50 51 53 54 55 55 55 56 57 59 60 60 58
36 35 34 34 33 33 32 31 31 31 30 30 30 30 30 31 31 31 32 33 34 35 36 37 39 41 43 45 47 48 50 51 53 54 54 54 55 56 57 58 59 57 55
35 34 33 33 32 32 31 31 30 30 30 29 29 30 30 30 30 31 32 32 33 34 36 37 39 41 43 45 47 48 50 51 52 52 53 53 54 55 57 57 56 54 52
34 33 32 31 31 31 30 30 30 29 29 29 29 29 29 29 30 30 31 32 33 34 35 37 39 41 43 44 46 48 50 51 51 52 52 52 54 54 55 55 53 50 48
34 33 32 31 30 30 30 29 29 29 29 28 28 28 28 28 29 30 31 32 33 34 35 37 39 40 43 45 47 49 50 50 50 50 51 52 52 53 53 52 50 47 45
34 33 32 31 30 30 30 29 29 28 28 27 27 27 27 28 29 30 31 32 33 34 35 37 39 41 43 45 47 49 49 49 49 49 50 51 51 51 51 50 47 45 42
33 32 31 31 30 29 29 28 28 27 27 26 26 27 27 28 29 29 30 32 33 34 35 37 39 41 43 45 47 48 48 48 48 49 50 50 50 49 49 48 46 43 39
33 31 31 30 30 29 28 27 27 27 26 26 26 26 26 27 28 29 30 31 33 34 36 38 40 42 44 45 47 48 47 47 48 48 49 49 49 48 47 46 43 40 36
32 32 31 31 30 29 28 27 26 26 26 26 26 26 26 27 28 29 30 31 33 35 36 38 40 42 44 46 47 47 46 46 47 48 48 48 48 47 46 44 40 37 34
32 32 31 30 30 29 28 27 26 26 26 26 26 26 27 27 28 29 31 32 33 35 36 38 40 42 44 46 47 46 45 46 47 47 47 47 46 46 44 41 37 35 33
32 31 30 30 29 29 28 27 27 26 26 26 26 27 28 28 29 30 31 32 34 35 37 39 41 43 45 46 46 45 45 46 47 47 47 46 45 44 41 38 35 33 32
32 31 30 30 29 29 27 27 27 27 26 26 26 27 28 28 29 30 31 32 33 35 37 39 42 43 45 45 45 45 45 46 47 47 46 45 44 42 39 36 33 32 31
32 31 30 30 29 28 27 26 26 26 26 26 27 27 27 28 29 30 31 32 33 36 38 40 42 44 44 45 45 45 45 46 46 46 44 44 42 39 37 34 32 31 30
31 31 30 29 28 27 26 26 25 26 26 26 26 27 28 28 29 30 31 32 35 37 39 41 42 43 44 45 45 44 44 44 45 44 43 42 39 37 35 33 31 30 28
31 30 29 27 26 25 25 25 25 25 25 26 26 26 27 28 29 30 31 33 35 37 38 40 42 43 44 44 44 43 43 44 44 43 43 41 37 35 33 31 29 28 26
Wind_Direction
239 240 242 244 247 249 252 255 258 260 263 266 269 271 274 275 278 281 283 286 289 291 293 294 296 298 300 301 303 304 305 307 308 308 309 310 310 311 312 312 312 312 312
239 241 242 244 246 249 251 255 257 260 262 265 267 270 272 274 277 280 283 286 288 290 292 294 296 298 299 300 302 304 305 307 308 309 310 310 311 312 312 313 313 313 313
238 240 242 244 246 249 251 254 256 259 262 264 266 269 271 274 276 279 283 285 288 289 292 294 296 298 299 300 302 303 305 307 308 310 310 311 312 313 313 313 314 314 314
237 239 242 244 246 249 251 254 256 259 261 263 266 268 270 273 276 279 282 285 288 290 293 294 296 297 298 300 302 303 305 307 309 310 311 312 313 313 313 314 315 314 315
236 239 241 244 247 249 251 253 255 257 260 263 265 267 270 272 275 279 282 285 288 290 292 294 295 297 299 301 302 304 305 307 309 310 312 312 313 313 314 315 315 315 316
236 238 241 243 245 248 250 252 255 257 260 262 264 266 269 272 275 279 283 285 288 290 292 294 295 297 300 301 303 304 306 308 309 310 311 312 313 314 314 315 315 316 316
236 238 240 242 244 247 249 252 255 257 259 262 264 267 270 273 275 279 283 285 288 290 292 293 296 298 300 301 303 305 307 309 310 311 312 313 314 315 315 315 316 317 318
235 237 239 242 244 246 248 251 254 256 259 261 264 267 269 272 276 280 282 285 287 290 292 294 296 298 299 301 304 306 308 309 311 311 312 314 315 315 315 316 317 318 319
234 236 237 239 242 245 247 250 252 255 258 261 263 266 269 272 276 279 283 286 289 291 293 295 297 298 300 303 305 308 309 310 311 312 313 315 316 316 316 317 318 319 319
233 235 236 238 241 244 247 249 251 254 257 259 262 265 269 272 276 280 285 288 289 291 293 295 297 299 301 304 307 309 310 311 312 313 315 316 316 316 317 318 319 319 319
230 233 235 237 239 243 246 248 249 252 255 259 263 266 270 273 277 281 285 287 289 291 293 295 297 300 303 306 308 309 310 312 313 315 316 317 317 317 318 319 320 320 320
229 231 234 236 239 242 245 248 250 252 256 261 264 268 271 275 278 281 284 287 289 291 294 297 299 302 305 307 308 310 312 313 315 316 317 317 317 318 319 320 321 321 321
228 230 233 236 239 242 245 248 250 253 257 261 265 268 272 275 278 282 284 287 289 292 296 299 301 304 306 307 310 312 313 315 316 317 318 318 318 319 320 321 322 322 322
228 230 233 236 239 241 244 247 250 253 257 261 265 268 272 276 279 282 285 287 290 294 297 300 302 305 307 309 311 314 315 316 317 318 318 319 320 321 321 322 323 323 323
227 229 232 236 238 241 244 247 251 254 258 261 265 268 272 275 278 282 285 288 292 295 298 301 304 307 309 311 313 315 316 317 318 319 320 320 321 322 323 324 324 324 324
227 230 233 235 237 240 243 247 251 255 259 261 265 269 272 275 278 281 285 289 293 296 300 303 306 308 310 312 314 316 317 318 319 320 320 321 322 323 324 325 325 325 325
227 230 233 234 236 240 243 247 252 256 259 262 266 269 272 275 278 282 287 291 294 297 301 304 307 309 311 313 315 317 318 318 319 320 321 322 324 325 326 327 327 326 325
228 231 233 234 237 240 244 249 253 256 259 263 266 269 273 277 280 284 288 292 295 299 302 305 308 310 312 314 316 318 319 319 320 321 322 323 325 326 327 328 327 327 326
229 231 234 236 238 242 245 250 254 257 260 263 266 270 274 278 282 285 289 293 297 300 303 306 309 311 313 315 317 319 319 320 321 322 323 324 325 326 327 328 328 327 327
228 231 234 236 239 242 246 250 254 257 260 263 267 271 276 280 283 287 291 294 298 301 304 307 310 312 314 316 318 319 320 321 322 323 324 325 326 327 328 328 327 327 327
228 231 234 237 239 243 246 249 253 257 261 264 268 272 276 280 284 287 291 295 299 302 304 307 311 313 315 317 319 319 320 321 322 323 324 325 326 327 327 327 327 327 327
226 230 234 237 240 242 245 249 254 258 261 264 268 272 276 281 286 290 293 297 300 302 305 308 311 314 316 317 319 319 319 320 322 323 323 324 325 327 327 326 325 326 327
225 228 232 236 239 242 246 251 254 258 261 266 270 274 278 283 287 291 294 297 300 303 306 310 313 315 317 318 319 319 319 321 322 323 323 324 325 326 326 325 324 325 326
224 227 232 236 240 243 247 252 256 259 262 267 272 276 280 285 288 292 295 298 301 304 307 311 314 316 317 318 319 319 320 321 323 323 324 324 325 325 325 324 323 324 325
224 228 232 237 240 244 249 253 257 261 265 270 274 278 283 287 290 294 297 300 303 305 308 312 314 316 317 318 319 319 320 322 323 324 324 325 324 324 324 323 322 323 324
224 228 231 235 240 246 250 254 259 263 268 271 275 279 284 288 292 295 298 300 303 306 309 312 314 316 317 318 319 319 320 322 323 323 324 324 323 323 323 323 323 323 323
Height
5702 5707 5713 5717 5721 5725 5728 5731 5733 5735 5736 5737 5738 5738 5738 5738 5737 5736 5735 5734 5732 5729 5727 5724 5721 5717 5714 5710 5705 5701 5697 5692 5688 5682 5676 5669 5662 5655 5647 5639 5631 5622 5612
5693 5698 5703 5708 5712 5715 5719 5722 5724 5726 5728 5729 5729 5730 5730 5730 5729 5728 5727 5726 5724 5721 5719 5716 5713 5709 5705 5701 5697 5692 5688 5683 5678 5673 5666 5659 5652 5644 5636 5627 5618 5609 5599
5683 5688 5693 5698 5703 5707 5710 5713 5715 5717 5719 5720 5721 5721 5721 5721 5721 5720 5719 5717 5715 5713 5710 5707 5704 5701 5697 5693 5688 5684 5679 5674 5668 5662 5656 5649 5641 5632 5624 5616 5606 5596 5586
5673 5678 5684 5689 5694 5698 5701 5704 5706 5708 5710 5711 5712 5713 5713 5713 5712 5712 5710 5709 5707 5704 5702 5699 5695 5692 5688 5684 5679 5675 5670 5664 5658 5652 5645 5638 5630 5621 5612 5604 5595 5584 5575
5663 5669 5674 5680 5684 5688 5692 5695 5697 5699 5701 5702 5703 5704 5704 5704 5704 5703 5702 5700 5698 5696 5693 5690 5687 5683 5679 5675 5670 5665 5660 5654 5648 5641 5634 5626 5618 5609 5601 5591 5583 5573 5564
5653 5659 5665 5670 5675 5679 5682 5685 5688 5690 5692 5693 5694 5695 5695 5695 5695 5694 5693 5691 5689 5687 5684 5681 5678 5674 5670 5666 5661 5656 5650 5645 5638 5631 5623 5614 5606 5597 5589 5579 5570 5562 5554
5644 5650 5655 5660 5665 5669 5673 5676 5678 5681 5683 5684 5685 5686 5687 5686 5686 5685 5684 5683 5681 5678 5676 5672 5669 5665 5661 5657 5652 5646 5641 5634 5627 5620 5611 5603 5594 5587 5578 5568 5558 5548 5539
5635 5641 5646 5651 5655 5660 5663 5666 5669 5672 5674 5675 5676 5677 5678 5677 5677 5676 5675 5673 5672 5669 5667 5664 5660 5656 5652 5648 5643 5637 5631 5624 5617 5609 5601 5592 5582 5573 5565 5556 5547 5538 5527
5626 5632 5637 5642 5646 5650 5654 5657 5660 5662 5664 5666 5667 5668 5669 5669 5668 5667 5666 5665 5663 5661 5658 5655 5651 5647 5643 5639 5634 5628 5621 5613 5605 5597 5589 5580 5571 5562 5553 5544 5535 5526 5517
5617 5623 5628 5632 5637 5641 5645 5648 5651 5653 5656 5657 5658 5659 5660 5660 5659 5659 5657 5656 5654 5652 5649 5646 5642 5638 5634 5629 5623 5618 5611 5603 5595 5587 5578 5569 5560 5551 5541 5533 5523 5514 5504
5608 5614 5619 5623 5628 5632 5636 5639 5642 5645 5647 5648 5650 5651 5651 5651 5651 5650 5649 5647 5645 5643 5640 5637 5633 5629 5624 5619 5614 5607 5600 5593 5585 5577 5568 5559 5550 5540 5531 5521 5511 5501 5491
5600 5605 5610 5615 5619 5623 5627 5630 5633 5636 5638 5640 5641 5642 5642 5642 5642 5641 5640 5639 5637 5634 5632 5628 5624 5620 5615 5610 5604 5597 5590 5582 5574 5566 5558 5549 5540 5530 5521 5511 5500 5490 5480
5591 5597 5602 5606 5611 5615 5619 5622 5625 5628 5630 5631 5633 5634 5634 5634 5633 5632 5631 5630 5628 5626 5623 5619 5615 5611 5606 5600 5594 5587 5580 5572 5564 5556 5547 5538 5529 5520 5510 5500 5490 5480 5470
5584 5589 5594 5599 5603 5607 5611 5614 5617 5619 5621 5623 5624 5625 5625 5625 5625 5624 5623 5621 5619 5617 5614 5610 5606 5602 5597 5591 5584 5577 5570 5562 5554 5546 5537 5528 5519 5510 5500 5490 5480 5470 5461
5576 5581 5586 5591 5595 5599 5603 5606 5609 5611 5613 5615 5616 5617 5617 5617 5617 5616 5614 5613 5611 5608 5605 5602 5598 5593 5588 5582 5575 5568 5560 5552 5544 5535 5527 5518 5509 5500 5490 5480 5471 5461 5453
5569 5574 5579 5583 5587 5591 5595 5598 5600 5603 5605 5606 5607 5608 5609 5609 5608 5607 5606 5604 5602 5600 5597 5593 5588 5584 5578 5572 5566 5558 5550 5542 5534 5526 5517 5509 5500 5490 5481 5471 5462 5453 5445
5562 5567 5572 5576 5580 5584 5587 5590 5593 5595 5597 5598 5599 5600 5600 5600 5600 5599 5598 5596 5593 5591 5588 5584 5579 5574 5569 5563 5556 5549 5541 5533 5525 5517 5508 5499 5490 5481 5472 5463 5454 5446 5438
5554 5559 5564 5568 5572 5576 5579 5582 5585 5587 5589 5590 5591 5592 5592 5592 5591 5591 5589 5587 5585 5582 5579 5575 5570 5565 5560 5553 5547 5539 5531 5523 5516 5508 5499 5491 5482 5473 5464 5456 5447 5439 5432
5547 5552 5557 5561 5565 5568 5572 5575 5577 5580 5581 5582 5583 5584 5584 5584 5583 5582 5581 5579 5577 5574 5570 5566 5561 5556 5550 5544 5537 5530 5522 5515 5507 5499 5490 5482 5474 5465 5457 5449 5441 5433 5426
5540 5545 5550 5554 5558 5561 5564 5567 5570 5572 5573 5575 5576 5576 5576 5576 5575 5574 5572 5570 5568 5565 5561 5557 5552 5547 5541 5535 5528 5521 5513 5506 5498 5490 5482 5474 5466 5458 5450 5442 5434 5428 5421
5533 5538 5542 5547 5550 5554 5557 5560 5562 5564 5566 5567 5568 5568 5568 5568 5567 5566 5564 5562 5559 5556 5552 5548 5543 5538 5532 5525 5518 5511 5505 5497 5490 5482 5474 5466 5458 5450 5443 5435 5429 5423 5417
5526 5531 5535 5540 5543 5547 5550 5553 5555 5557 5558 5559 5560 5560 5560 5560 5559 5558 5556 5553 5550 5547 5543 5539 5534 5529 5522 5516 5509 5502 5495 5488 5481 5474 5466 5458 5451 5443 5436 5429 5423 5418 5412
5519 5524 5529 5533 5536 5540 5543 5545 5548 5549 5551 5551 5552 5552 5552 5551 5550 5549 5547 5545 5542 5538 5534 5530 5525 5519 5513 5506 5500 5493 5486 5480 5472 5465 5457 5450 5443 5436 5429 5423 5418 5412 5407
5513 5518 5522 5526 5529 5533 5536 5538 5540 5542 5543 5543 5544 5544 5544 5543 5542 5540 5538 5536 5533 5529 5525 5521 5516 5510 5504 5497 5491 5484 5477 5470 5463 5456 5449 5442 5436 5429 5423 5417 5412 5407 5403
5506 5511 5515 5519 5523 5526 5529 5531 5532 5534 5535 5536 5536 5536 5536 5535 5533 5532 5530 5527 5524 5520 5516 5511 5506 5500 5494 5488 5482 5475 5468 5462 5455 5448 5441 5435 5428 5422 5417 5412 5407 5403 5398
5500 5505 5509 5513 5516 5519 5521 5523 5525 5526 5527 5528 5528 5528 5527 5526 5525 5523 5521 5518 5515 5511 5507 5502 5496 5491 5485 5479 5473 5466 5460 5454 5447 5440 5434 5427 5421 5416 5411 5406 5402 5398 5394